CW8822 Caguas PR US current weather conditions

sailwx.info

Wind from 066

Air temperature 26.7° C
Dewpoint 23.5° C

Last reported at 2016-Dec-06 14:50 UTC.
Time now 2016-Dec-06 16:06 UTC

Location: N 18°12' W 066°01'.
View on Google Maps.

See reports from other nearby stations

  
Tides and Currents Weather Stations Pressure Air Temp Water Temp Dewpoint Dewpoint Depression Visibility Wind Speed Wind Dir Waves Ship Positions
date/time (UTC)wind fromknots sea level pressurealtimeterstation pressurevisibilityair tempwater tempwave heightnotes
2016-Dec-06 15:50 052 27.8
2016-Dec-06 15:36 052 27.2
2016-Dec-06 15:21 140 27.8
2016-Dec-06 15:05 061 0 gusting 6 27.2
2016-Dec-06 14:50 066 26.7
2016-Dec-06 14:36 066 27.2
2016-Dec-06 14:20 040 27.2
2016-Dec-06 14:05 055 0 gusting 6 26.1
2016-Dec-06 13:49 017 26.7
2016-Dec-06 13:34 017 25.6
2016-Dec-06 13:20 016 25.6
2016-Dec-06 13:04 011 25.0
2016-Dec-06 12:50 343 25.0
2016-Dec-06 12:34 343 24.4
2016-Dec-06 12:19 343 23.3
2016-Dec-06 12:05 343 22.8
2016-Dec-06 11:49 343 22.2
2016-Dec-06 11:34 343 22.2
2016-Dec-06 11:19 343 22.8
2016-Dec-06 11:03 343 22.2
2016-Dec-06 10:49 343 22.2
2016-Dec-06 10:34 343 22.2
2016-Dec-06 10:18 343 22.2
2016-Dec-06 10:03 343 22.2
2016-Dec-06 09:48 343 22.2
2016-Dec-06 09:32 343 22.2
2016-Dec-06 09:18 343 22.2
2016-Dec-06 09:03 343 0 gusting 2 22.2
2016-Dec-06 08:49 343 22.2
2016-Dec-06 08:32 343 22.2
2016-Dec-06 08:18 343 22.2
2016-Dec-06 08:03 343 22.2
2016-Dec-06 07:49 343 22.2
2016-Dec-06 07:33 343 22.2
2016-Dec-06 07:18 343 22.2
2016-Dec-06 07:02 343 22.2
2016-Dec-06 06:48 343 22.2
2016-Dec-06 06:32 343 22.2
2016-Dec-06 06:18 343 22.2
2016-Dec-06 06:02 343 22.2
2016-Dec-06 05:47 343 22.8
2016-Dec-06 05:32 343 22.8
2016-Dec-06 05:16 343 22.8
2016-Dec-06 05:02 343 22.8
2016-Dec-06 04:47 343 1 gusting 3 22.8
2016-Dec-06 04:32 343 22.8
2016-Dec-06 04:16 343 22.8
2016-Dec-06 04:01 343 22.8
2016-Dec-06 03:47 343 22.8
2016-Dec-06 03:32 343 22.8
2016-Dec-06 03:16 343 23.3
2016-Dec-06 03:01 343 23.3
2016-Dec-06 02:46 343 23.3
2016-Dec-06 02:31 343 0 gusting 3 23.3
2016-Dec-06 02:16 343 23.3
2016-Dec-06 02:01 343 23.3
2016-Dec-06 01:47 343 23.3
2016-Dec-06 01:30 343 23.3
2016-Dec-06 01:16 343 23.3
2016-Dec-06 01:01 343 23.3
2016-Dec-06 00:46 343 23.3
2016-Dec-06 00:30 343 22.8
2016-Dec-06 00:15 343 0 gusting 2 23.3
2016-Dec-06 00:01 343 23.3
2016-Dec-05 23:46 343 23.3
2016-Dec-05 23:30 343 23.3
2016-Dec-05 23:15 343 23.3
2016-Dec-05 23:00 343 23.3
2016-Dec-05 22:45 343 23.3
2016-Dec-05 22:31 343 23.3
2016-Dec-05 22:14 343 23.9
2016-Dec-05 22:00 343 23.9
2016-Dec-05 21:45 343 23.9
2016-Dec-05 21:30 343 23.9
2016-Dec-05 21:15 343 23.9
2016-Dec-05 21:00 343 23.9
2016-Dec-05 20:45 343 23.9
2016-Dec-05 20:29 343 23.9
2016-Dec-05 20:14 343 23.9
2016-Dec-05 20:00 343 23.9
2016-Dec-05 19:45 343 24.4
2016-Dec-05 19:29 343 25.0
2016-Dec-05 19:14 343 23.9
2016-Dec-05 18:59 343 23.9
2016-Dec-05 18:45 343 24.4
2016-Dec-05 18:28 347 24.4
2016-Dec-05 18:14 349 23.9
2016-Dec-05 17:59 349 23.3
2016-Dec-05 17:43 349 23.9
2016-Dec-05 17:28 350 25.0
2016-Dec-05 17:13 314 26.1
2016-Dec-05 16:58 050 26.1
2016-Dec-05 16:43 194 26.7
2016-Dec-05 16:28 194 26.7
2016-Dec-05 16:13 194 26.1
2016-Dec-05 15:58 194 25.6
2016-Dec-05 15:43 213 26.7
2016-Dec-05 15:28 213 27.2
2016-Dec-05 15:13 213 26.1
2016-Dec-05 14:58 213 25.6
2016-Dec-05 14:43 207 25.6
2016-Dec-05 14:28 142 25.0
2016-Dec-05 14:13 142 25.0
2016-Dec-05 13:58 142 25.6
2016-Dec-05 13:43 142 25.6
2016-Dec-05 13:28 142 25.0
2016-Dec-05 13:13 129 24.4
2016-Dec-05 12:58 129 23.9
2016-Dec-05 12:43 129 23.9
2016-Dec-05 12:27 129 23.3
2016-Dec-05 12:12 129 22.8
2016-Dec-05 11:57 129 0 gusting 2 22.2
2016-Dec-05 11:43 129 22.2
2016-Dec-05 11:27 129 22.2
2016-Dec-05 11:12 129 21.7
2016-Dec-05 10:57 129 21.7
2016-Dec-05 10:42 129 21.7
2016-Dec-05 10:27 129 21.7
2016-Dec-05 10:12 129 22.2
2016-Dec-05 09:57 129 21.7
2016-Dec-05 09:42 129 21.7
2016-Dec-05 09:27 129 22.2
2016-Dec-05 09:12 129 22.2
2016-Dec-05 08:57 129 22.2
2016-Dec-05 08:42 129 22.2
2016-Dec-05 08:27 129 22.2
2016-Dec-05 08:12 129 22.8
2016-Dec-05 07:57 129 22.2
2016-Dec-05 07:42 129 22.2
2016-Dec-05 07:27 129 22.2
2016-Dec-05 07:12 129 22.8
2016-Dec-05 06:57 129 22.8
2016-Dec-05 06:42 129 22.8
2016-Dec-05 06:27 129 22.2
2016-Dec-05 06:12 129 22.2
2016-Dec-05 05:57 129 22.8
2016-Dec-05 05:42 129 22.8
2016-Dec-05 05:27 129 22.8
2016-Dec-05 05:12 129 22.8
2016-Dec-05 04:57 129 22.8
2016-Dec-05 04:42 129 23.3
2016-Dec-05 04:27 129 23.3
2016-Dec-05 04:12 129 22.8
2016-Dec-05 03:57 129 22.8
2016-Dec-05 03:54 129 22.8
2016-Dec-05 03:28 129 23.3
2016-Dec-05 03:11 129 23.3
2016-Dec-05 02:56 129 23.3
2016-Dec-05 02:42 129 23.3
2016-Dec-05 02:27 129 23.3
2016-Dec-05 02:12 129 23.9
2016-Dec-05 01:56 129 23.9
2016-Dec-05 01:42 129 23.9
2016-Dec-05 01:26 129 23.9
2016-Dec-05 01:11 129 23.9
2016-Dec-05 00:56 129 23.9
2016-Dec-05 00:42 129 23.9
2016-Dec-05 00:27 129 23.9
2016-Dec-05 00:11 129 23.9
2016-Dec-04 23:56 129 24.4
2016-Dec-04 23:41 129 24.4
2016-Dec-04 23:27 129 24.4
2016-Dec-04 23:10 129 24.4
2016-Dec-04 22:56 129 24.4
2016-Dec-04 22:41 129 25.0
2016-Dec-04 22:25 136 0 gusting 4 25.0
2016-Dec-04 22:11 133 0 gusting 4 25.0
2016-Dec-04 21:56 132 25.0
2016-Dec-04 21:40 132 25.6
2016-Dec-04 21:26 129 0 gusting 4 26.1
2016-Dec-04 21:11 107 26.7
2016-Dec-04 20:55 107 27.2
2016-Dec-04 20:40 094 26.7
2016-Dec-04 20:26 094 26.7
2016-Dec-04 20:09 094 27.2
2016-Dec-04 19:55 094 27.8
2016-Dec-04 19:40 148 28.3
2016-Dec-04 19:25 148 28.9
2016-Dec-04 19:10 113 28.3
2016-Dec-04 18:54 139 28.3
2016-Dec-04 18:40 142 0 gusting 5 28.3
2016-Dec-04 18:25 138 28.3
2016-Dec-04 18:10 121 28.9
2016-Dec-04 17:55 122 28.3
2016-Dec-04 17:39 148 27.8
2016-Dec-04 17:25 128 28.3
2016-Dec-04 17:09 138 28.3
2016-Dec-04 16:54 060 28.9
2016-Dec-04 16:40 108 28.9
2016-Dec-04 16:24 119 28.3
2016-Dec-04 16:09 119 28.3